FW7063 Weather Reports


time (UTC)temp
C
wind
direction
speed
KPH
gust
KPH
rain 1hr
cm
rain 24hr
cm
rain mn
cm
humidity
%
barometer
mb
20260506073103 9 324 11.3 16.1 0.00 0.00 0.00 71 1012.2
20260506072603 9 336 11.3 16.1 0.00 0.00 0.00 71 1012.2
20260506072104 9 95 8.0 12.9 0.00 0.00 0.00 70 1012.5
20260506071603 9 110 4.8 16.1 0.00 0.00 0.00 71 1012.5
20260506071103 9 118 4.8 20.9 0.00 0.00 0.00 72 1012.5
20260506070604 9 288 8.0 17.7 0.00 0.00 0.00 71 1012.2
20260506070103 9 348 12.9 17.7 0.00 0.00 0.00 73 1012.2
20260506062104 8 125 4.8 12.9 0.00 0.00 0.00 76 1011.9
20260506061603 8 27 3.2 9.7 0.00 0.00 0.00 76 1011.9
20260506061104 8 18 1.6 11.3 0.00 0.00 0.00 76 1011.9
20260506060603 8 30 4.8 12.9 0.00 0.00 0.00 77 1011.9
20260506060105 8 19 1.6 8.0 0.00 0.00 0.00 77 1011.9
20260506051103 8 23 3.2 4.8 0.00 0.00 0.00 79 1011.9
20260506050607 7 359 4.8 9.7 0.00 0.00 0.00 79 1011.9
20260506050104 7 129 8.0 14.5 0.00 0.00 0.00 79 1012.2
20260506045104 7 352 6.4 11.3 0.00 0.00 0.00 79 1011.9
20260506044603 7 60 4.8 9.7 0.00 0.00 0.00 79 1011.9
20260506044109 7 348 3.2 9.7 0.00 0.00 0.00 79 1011.9
20260506043605 7 353 4.8 9.7 0.00 0.00 0.00 79 1011.9
20260506043105 7 335 3.2 8.0 0.00 0.00 0.00 78 1011.9
20260506042603 7 13 1.6 4.8 0.00 0.00 0.00 78 1011.9
20260506042104 7 26 9.7 14.5 0.00 0.00 0.00 78 1011.9
20260506041603 7 13 1.6 8.0 0.00 0.00 0.00 78 1011.9
20260506041104 8 352 0.0 9.7 0.00 0.00 0.00 77 1011.5
20260506040605 8 0 3.2 9.7 0.00 0.00 0.00 77 1011.5
20260506035603 8 40 4.8 8.0 0.00 0.00 0.00 77 1011.9
20260506035103 8 1 4.8 8.0 0.00 0.00 0.00 77 1011.5
20260506034603 8 13 1.6 3.2 0.00 0.00 0.00 77 1011.5
20260506034103 8 358 4.8 11.3 0.00 0.00 0.00 77 1011.5
20260506033603 8 46 4.8 8.0 0.00 0.00 0.00 78 1011.5
20260506033104 8 347 6.4 9.7 0.00 0.00 0.00 78 1011.5
20260506032603 9 99 1.6 3.2 0.00 0.00 0.00 78 1011.5
20260506032103 9 342 1.6 8.0 0.00 0.00 0.00 78 1011.5
20260506031603 9 96 4.8 8.0 0.00 0.00 0.00 78 1011.5
20260506031103 9 309 0.0 4.8 0.00 0.00 0.00 77 1011.9
20260506030603 9 52 1.6 1.6 0.00 0.00 0.00 77 1011.5
20260506030103 9 92 3.2 4.8 0.00 0.00 0.00 77 1011.5
20260506025603 9 64 0.0 3.2 0.00 0.00 0.00 77 1011.5
20260506025104 9 74 1.6 3.2 0.00 0.00 0.00 77 1011.5
20260506024603 9 75 1.6 8.0 0.00 0.00 0.00 76 1011.9
20260506024104 9 78 3.2 8.0 0.00 0.00 0.00 76 1011.9
20260506023606 9 97 3.2 8.0 0.00 0.00 0.00 76 1011.5
20260506023106 9 55 3.2 8.0 0.00 0.00 0.00 76 1011.5
20260506022603 9 71 1.6 3.2 0.00 0.00 0.00 76 1011.9
20260506022104 9 73 4.8 9.7 0.00 0.00 0.00 75 1011.9
20260506021603 9 58 4.8 9.7 0.00 0.00 0.00 75 1011.9
20260506021106 9 100 4.8 9.7 0.00 0.00 0.00 75 1011.9
20260506020603 9 67 4.8 8.0 0.00 0.00 0.00 75 1011.9
20260506020104 9 83 1.6 4.8 0.00 0.00 0.00 75 1011.9
20260506015603 9 83 1.6 11.3 0.00 0.00 0.00 74 1011.9
20260506015103 9 38 1.6 9.7 0.00 0.00 0.00 74 1011.9
20260506014604 9 65 1.6 3.2 0.00 0.00 0.00 74 1011.9
20260506014103 9 85 3.2 9.7 0.00 0.00 0.00 74 1012.2
20260506013603 9 73 1.6 3.2 0.00 0.00 0.00 74 1011.9
20260506013103 10 63 3.2 4.8 0.00 0.00 0.00 74 1011.9
20260506012603 10 73 1.6 3.2 0.00 0.00 0.00 74 1012.2
20260506012104 10 96 0.0 3.2 0.00 0.00 0.00 74 1011.9
20260506011604 10 99 3.2 4.8 0.00 0.00 0.00 74 1011.9
20260506011103 10 89 1.6 9.7 0.00 0.00 0.00 74 1011.9
20260506010604 10 86 1.6 3.2 0.00 0.00 0.00 73 1012.2
20260506010103 10 81 1.6 9.7 0.00 0.00 0.00 73 1012.2
20260506005603 10 80 1.6 4.8 0.00 0.00 0.00 73 1012.2
20260506005103 10 109 3.2 9.7 0.00 0.00 0.00 73 1012.2
20260506004603 10 46 4.8 8.0 0.00 0.00 0.00 73 1012.2
20260506004103 10 81 1.6 11.3 0.00 0.00 0.00 73 1012.2
20260506003604 10 90 3.2 11.3 0.00 0.00 0.00 72 1011.9
20260506003103 10 72 6.4 11.3 0.00 0.00 0.00 72 1011.9
20260506002603 10 62 1.6 8.0 0.00 0.00 0.00 72 1012.2
20260506002104 10 47 3.2 11.3 0.00 0.00 0.00 72 1012.2
20260506001603 10 56 3.2 11.3 0.00 0.00 0.00 72 1012.2
20260506001103 10 355 1.6 4.8 0.00 0.00 0.00 72 1012.2
20260506000603 10 10 6.4 11.3 0.00 0.00 0.00 73 1012.2
20260505235603 10 19 3.2 9.7 0.00 0.00 0.00 75 1012.2
20260505235103 10 2 8.0 12.9 0.00 0.00 0.00 77 1012.2
20260505234603 10 64 3.2 4.8 0.00 0.00 0.00 77 1012.2
20260505234104 10 89 0.0 4.8 0.00 0.00 0.00 77 1011.9
20260505233604 10 78 1.6 8.0 0.00 0.00 0.00 76 1011.9
20260505233105 10 98 0.0 1.6 0.00 0.00 0.00 75 1011.9
20260505232603 10 89 0.0 1.6 0.00 0.00 0.00 75 1011.9
20260505232104 11 93 3.2 8.0 0.00 0.00 0.00 75 1012.2
20260505231603 11 89 4.8 8.0 0.00 0.00 0.00 74 1011.9
20260505230604 11 72 3.2 4.8 0.00 0.00 0.00 72 1011.9
20260505225603 11 96 1.6 3.2 0.00 0.00 0.00 72 1011.9
20260505225104 11 115 1.6 4.8 0.00 0.00 0.00 71 1012.2
20260505224603 11 121 1.6 3.2 0.00 0.00 0.00 71 1011.9
20260505224103 11 93 3.2 3.2 0.00 0.00 0.00 71 1011.9
20260505223604 11 98 0.0 3.2 0.00 0.00 0.00 71 1012.2
20260505223103 11 149 1.6 3.2 0.00 0.00 0.00 70 1011.9
20260505222603 11 135 0.0 0.0 0.00 0.00 0.00 70 1011.9
20260505222103 11 132 1.6 1.6 0.00 0.00 0.00 70 1011.9
20260505221603 11 129 0.0 1.6 0.00 0.00 0.00 70 1012.2
20260505221103 11 56 0.0 0.0 0.00 0.00 0.00 70 1011.9
20260505220603 11 140 0.0 3.2 0.00 0.00 0.00 70 1011.9
20260505220103 11 131 1.6 8.0 0.00 0.00 0.00 69 1012.2
20260505215604 11 109 0.0 0.0 0.00 0.00 0.00 69 1012.2
20260505215103 11 109 0.0 1.6 0.00 0.00 0.00 69 1011.9
20260505214604 11 133 0.0 1.6 0.00 0.00 0.00 69 1011.9
20260505214103 11 125 1.6 3.2 0.00 0.00 0.00 68 1012.2
20260505213603 11 139 0.0 3.2 0.00 0.00 0.00 68 1011.9
20260505213104 11 143 3.2 4.8 0.00 0.00 0.00 68 1011.9
20260505212603 11 155 3.2 3.2 0.00 0.00 0.00 68 1011.9
20260505212103 11 93 3.2 4.8 0.00 0.00 0.00 68 1011.9
20260505211603 11 117 3.2 8.0 0.00 0.00 0.00 68 1011.9
20260505211104 12 89 1.6 9.7 0.00 0.00 0.00 68 1011.9
20260505210604 12 107 0.0 3.2 0.00 0.00 0.00 68 1011.9
20260505210103 12 118 1.6 4.8 0.00 0.00 0.00 68 1011.5
20260505205603 12 98 1.6 4.8 0.00 0.00 0.00 68 1011.5
20260505205103 12 107 1.6 3.2 0.00 0.00 0.00 68 1011.9
20260505204603 12 151 3.2 4.8 0.00 0.00 0.00 68 1011.5
20260505204103 12 112 1.6 3.2 0.00 0.00 0.00 67 1011.5
20260505203603 12 93 0.0 8.0 0.00 0.00 0.00 67 1011.5
20260505203104 12 102 1.6 3.2 0.00 0.00 0.00 68 1011.5
20260505202611 12 90 0.0 3.2 0.00 0.00 0.00 69 1011.5
20260505202103 12 104 0.0 1.6 0.00 0.00 0.00 69 1011.5
20260505201603 12 120 0.0 1.6 0.00 0.00 0.00 69 1011.5
20260505201104 12 120 0.0 1.6 0.00 0.00 0.00 69 1011.2
20260505200604 12 120 0.0 0.0 0.00 0.00 0.00 68 1011.2
20260505200103 12 120 0.0 0.0 0.00 0.00 0.00 68 1011.2
20260505195603 12 120 0.0 0.0 0.00 0.00 0.00 68 1011.2
20260505195105 12 122 0.0 1.6 0.00 0.00 0.00 68 1010.8
20260505194605 12 121 0.0 0.0 0.00 0.00 0.00 68 1010.8
20260505194103 12 121 0.0 0.0 0.00 0.00 0.00 67 1011.2
20260505193603 12 121 0.0 0.0 0.00 0.00 0.00 67 1011.2
20260505193103 12 121 0.0 0.0 0.00 0.00 0.00 67 1011.2
20260505192603 12 121 0.0 0.0 0.00 0.00 0.00 66 1010.8
20260505192105 13 122 0.0 1.6 0.00 0.00 0.00 66 1010.5
20260505191606 13 121 0.0 3.2 0.00 0.00 0.00 66 1010.5
20260505191104 13 117 0.0 1.6 0.00 0.00 0.00 65 1010.5
20260505190603 13 103 1.6 1.6 0.00 0.00 0.00 65 1010.5
20260505190104 13 98 1.6 1.6 0.00 0.00 0.00 65 1010.5
20260505185603 13 98 0.0 0.0 0.00 0.00 0.00 65 1010.8
20260505185104 13 98 0.0 1.6 0.00 0.00 0.00 65 1010.5
20260505184604 13 98 0.0 1.6 0.00 0.00 0.00 65 1010.5
20260505184104 13 98 1.6 1.6 0.00 0.00 0.00 65 1010.5
20260505183604 13 106 0.0 1.6 0.00 0.00 0.00 64 1010.2
20260505183104 13 129 0.0 0.0 0.00 0.00 0.00 65 1010.5
20260505182604 13 129 0.0 0.0 0.00 0.00 0.00 65 1010.5
20260505182103 13 124 1.6 3.2 0.00 0.00 0.00 66 1010.5
20260505181604 13 123 0.0 3.2 0.00 0.00 0.00 66 1010.5
20260505181105 13 292 0.0 0.0 0.00 0.00 0.00 66 1010.5
20260505180603 13 312 0.0 1.6 0.00 0.00 0.00 66 1010.5
20260505180104 13 312 1.6 4.8 0.00 0.00 0.00 66 1010.5
20260505175603 13 304 1.6 3.2 0.00 0.00 0.00 65 1010.5
20260505175103 13 307 3.2 3.2 0.00 0.00 0.00 65 1010.2
20260505174603 13 290 3.2 4.8 0.00 0.00 0.00 64 1010.5
20260505174104 13 309 4.8 4.8 0.00 0.00 0.00 64 1010.5
20260505173604 13 35 1.6 3.2 0.00 0.00 0.00 64 1010.5
20260505173104 14 85 0.0 0.0 0.00 0.00 0.00 63 1010.5
20260505172604 14 85 0.0 0.0 0.00 0.00 0.00 63 1010.5
20260505172104 14 85 0.0 0.0 0.00 0.00 0.00 62 1010.5
20260505171603 14 85 0.0 0.0 0.00 0.00 0.00 62 1010.5
20260505171103 14 90 0.0 0.0 0.00 0.00 0.00 62 1010.5
20260505170604 14 85 0.0 0.0 0.00 0.00 0.00 62 1010.5
20260505170103 14 90 0.0 0.0 0.00 0.00 0.00 62 1010.5
20260505165603 14 90 0.0 1.6 0.00 0.00 0.00 62 1010.5
20260505165104 14 104 0.0 0.0 0.00 0.00 0.00 62 1010.5
20260505164604 14 104 0.0 1.6 0.00 0.00 0.00 60 1010.5
20260505164104 14 101 0.0 1.6 0.00 0.00 0.00 60 1010.5
20260505163604 14 101 0.0 1.6 0.00 0.00 0.00 60 1010.5
20260505163103 15 101 0.0 1.6 0.00 0.00 0.00 60 1010.5
20260505162604 15 89 0.0 3.2 0.00 0.00 0.00 60 1010.5
20260505162103 15 88 0.0 1.6 0.00 0.00 0.00 60 1010.5
20260505161603 15 66 0.0 1.6 0.00 0.00 0.00 60 1010.5
20260505161104 15 59 1.6 3.2 0.00 0.00 0.00 59 1010.5
20260505160604 15 87 0.0 1.6 0.00 0.00 0.00 58 1010.5
20260505160104 15 59 1.6 3.2 0.00 0.00 0.00 57 1010.5
20260505153107 15 64 3.2 3.2 0.00 0.00 0.00 57 1010.5
20260505152606 15 70 0.0 3.2 0.00 0.00 0.00 57 1010.8
20260505152104 15 73 1.6 3.2 0.00 0.00 0.00 59 1010.8
20260505151603 15 78 1.6 3.2 0.00 0.00 0.00 58 1010.5
20260505151104 15 73 3.2 3.2 0.00 0.00 0.00 58 1010.8
20260505150605 15 83 1.6 4.8 0.00 0.00 0.00 57 1010.8
20260505150103 15 73 1.6 1.6 0.00 0.00 0.00 57 1010.8
20260505140604 15 83 3.2 8.0 0.00 0.00 0.00 58 1011.2
20260505140113 15 68 1.6 4.8 0.00 0.00 0.00 58 1010.8
20260505130104 15 326 1.6 3.2 0.00 0.00 0.00 61 1011.2
20260505124604 15 111 1.6 11.3 0.00 0.00 0.00 57 1011.2
20260505124104 15 343 1.6 3.2 0.00 0.00 0.00 60 1011.2
20260505123605 15 127 1.6 4.8 0.00 0.00 0.00 61 1011.5
20260505123104 15 347 1.6 4.8 0.00 0.00 0.00 61 1011.2
20260505122606 15 323 4.8 8.0 0.00 0.00 0.00 59 1011.2
20260505122104 15 103 0.0 8.0 0.00 0.00 0.00 58 1011.2
20260505121603 15 82 4.8 8.0 0.00 0.00 0.00 61 1011.2
20260505121104 15 99 1.6 3.2 0.00 0.00 0.00 59 1011.2
20260505120603 15 300 0.0 4.8 0.00 0.00 0.00 59 1011.2
20260505120103 16 75 1.6 3.2 0.00 0.00 0.00 57 1011.2
20260505115604 16 89 4.8 11.3 0.00 0.00 0.00 56 1011.2
20260505115103 16 88 1.6 4.8 0.00 0.00 0.00 58 1011.2
20260505114604 16 174 4.8 9.7 0.00 0.00 0.00 58 1011.2
20260505114103 16 64 6.4 9.7 0.00 0.00 0.00 58 1011.5
20260505113604 16 340 3.2 8.0 0.00 0.00 0.00 61 1011.5
20260505113103 15 102 0.0 4.8 0.00 0.00 0.00 59 1011.5
20260505112604 15 116 4.8 12.9 0.00 0.00 0.00 60 1011.5
20260505112103 15 82 1.6 8.0 0.00 0.00 0.00 59 1011.5
20260505111604 16 120 4.8 4.8 0.00 0.00 0.00 58 1011.5
20260505111103 16 98 1.6 4.8 0.00 0.00 0.00 59 1011.2
20260505110603 16 250 3.2 9.7 0.00 0.00 0.00 60 1011.5
20260505102105 15 341 3.2 12.9 0.00 0.00 0.00 68 1011.5
20260505101605 14 253 3.2 9.7 0.00 0.00 0.00 67 1011.5
20260505101106 14 152 1.6 11.3 0.00 0.00 0.00 68 1011.9
20260505100606 14 348 9.7 12.9 0.00 0.00 0.00 67 1011.9
20260505100106 14 344 9.7 12.9 0.00 0.00 0.00 68 1011.9
20260505095605 14 332 3.2 8.0 0.00 0.00 0.00 67 1011.9
20260505095106 14 175 4.8 14.5 0.00 0.00 0.00 69 1012.2
20260505094606 14 77 1.6 8.0 0.00 0.00 0.00 68 1011.9
20260505094106 14 326 1.6 9.7 0.00 0.00 0.00 68 1012.2
20260505093603 14 83 6.4 14.5 0.00 0.00 0.00 66 1011.9
20260505093105 14 110 4.8 9.7 0.00 0.00 0.00 70 1011.9
20260505092605 13 58 4.8 9.7 0.00 0.00 0.00 70 1011.9
20260505092105 13 55 4.8 11.3 0.00 0.00 0.00 71 1011.9
20260505091606 13 358 3.2 14.5 0.00 0.00 0.00 72 1012.2
20260505091105 13 100 3.2 11.3 0.00 0.00 0.00 71 1011.9
20260505090606 12 21 1.6 4.8 0.00 0.00 0.00 72 1012.2
20260505085616 12 344 4.8 12.9 0.00 0.00 0.00 74 1012.2
20260505085105 12 2 9.7 16.1 0.00 0.00 0.00 74 1012.2
20260505084603 12 19 4.8 14.5 0.00 0.00 0.00 74 1012.5
20260505084105 12 316 11.3 20.9 0.00 0.00 0.00 73 1012.5
20260505083603 12 2 4.8 11.3 0.00 0.00 0.00 74 1012.5
20260505083104 12 161 1.6 8.0 0.00 0.00 0.00 74 1012.2
20260505082604 12 7 4.8 11.3 0.00 0.00 0.00 73 1012.2
20260505082104 12 357 3.2 11.3 0.00 0.00 0.00 73 1012.2
20260505081603 13 337 9.7 17.7 0.00 0.00 0.00 71 1012.2
20260505081103 13 22 6.4 11.3 0.00 0.00 0.00 71 1012.5
20260505080607 13 298 4.8 12.9 0.00 0.00 0.00 73 1012.2
20260505080104 13 323 4.8 12.9 0.00 0.00 0.00 71 1012.2
20260505075603 13 335 6.4 12.9 0.00 0.00 0.00 73 1012.2
20260505075105 13 97 3.2 8.0 0.00 0.00 0.00 74 1011.9
20260505074603 13 290 11.3 16.1 0.00 0.00 0.00 76 1012.2
20260505074104 13 14 3.2 14.5 0.00 0.00 0.00 75 1012.2
20260505073603 12 10 3.2 3.2 0.00 0.00 0.00 77 1012.2